Location: Caltech
(34.1382°N, 118.1253°W)
Time: 08:29:53
(UTC-07:00)

Uribyol 2 - Visible Passes

Search period start: 25 May 2015 00:00
Search period end: 04 June 2015 00:00
Orbit: 783 x 797 km, 98.7° (Epoch: 23 May)

Date Brightness Start Highest point End Pass type
(mag) Time Alt. Az. Time Alt. Az. Time Alt. Az.
25 May ? 03:03:05 10° NNE 03:08:16 62° E 03:09:11 53° SE visible
25 May ? 04:44:29 10° NNW 04:47:17 14° WNW 04:49:50 10° W visible
26 May ? 02:34:03 10° NE 02:38:37 31° E 02:39:19 30° ESE visible
26 May ? 04:13:37 10° NNW 04:18:00 27° WNW 04:20:03 21° WSW visible
27 May ? 02:05:54 10° ENE 02:08:47 15° E 02:09:28 15° E visible
27 May ? 03:43:32 10° N 03:48:38 52° WNW 03:50:11 39° WSW visible
28 May ? 03:13:54 10° NNE 03:19:09 79° ESE 03:20:19 55° S visible
28 May ? 04:56:31 10° NW 04:58:04 11° WNW 04:59:15 10° WNW visible
29 May ? 02:44:41 10° NNE 02:49:33 39° E 02:50:27 36° ESE visible
29 May ? 04:24:50 10° NNW 04:28:49 22° WNW 04:31:10 16° WSW visible
30 May ? 02:16:06 10° NE 02:19:47 20° E 02:20:35 19° ESE visible
30 May ? 03:54:33 10° N 03:59:28 41° WNW 04:01:19 30° WSW visible
31 May ? 03:24:46 10° N 03:30:01 81° WNW 03:31:27 50° SSW visible
01 Jun ? 02:55:24 10° NNE 03:00:28 51° E 03:01:34 43° SE visible
01 Jun ? 04:36:11 10° NNW 04:39:36 17° WNW 04:42:18 12° W visible
02 Jun ? 02:26:32 10° NE 02:30:46 25° E 02:31:42 24° ESE visible
02 Jun ? 04:05:38 10° N 04:10:17 32° WNW 04:12:25 23° WSW visible
03 Jun ? 01:58:55 10° ENE 02:00:53 12° E 02:01:49 12° E visible
03 Jun ? 03:35:42 10° N 03:40:53 63° WNW 03:42:33 41° SW visible
